STARLINK-4687, 53784

Orbit data source: Space-Track

STARLINK-4687, 53784 is a payload satellite owned by SpaceX/Seattle (US) in LEO that was launched on Sun, 11 Sep 2022 UTC via an FALCON 9 launch vehicle from the Air Force Eastern Test Range (AFETR). Payload-class satellites include a variety of spacecraft equipped with specific instruments for various scientific and technological missions. These include communications satellites like Starlink; space stations such as the ISS; scientific satellites like the Hubble; Earth observation satellites from companies like Planet Labs, Umbra, and HawkEye 360; GPS; miniature CubeSats for education and research; and military/defense satellites.

Loading next visibility...
Identifier
53784, 2022-111M
Orbit
LEO
Country
Flag of USUS
Related business
Manufacturer
SpaceX/Seattle
Mission
Operational Commercial Communications
Bus & Motor
STARLINK, Unknown motor
Mass
305 kg wet, ~290 kg dry
Launch date (UTC)
2022-09-11 (4 years ago)
Launch vehicle
FALCON 9
Launch site
Air Force Eastern Test Range (AFETR)
Object type
Payload
Rocket body
Debris
Shape & HBR
Box + 1 Pan, 10.1 m
Radar Cross Section
13.562 m², Large (>1 m²)

Expand to show TLE details & history
Last TLE update: 1 day ago

TLE from 1 day ago
0 STARLINK-4687
1 53784U 22111M   26263.17469263 -.00000347  00000-0  58444-6 0  9997
2 53784  53.1589 107.2932 0001215  83.1104 277.0036 15.31704857223249
Epoch: 2026-09-20T04:11Z
TLE epoch observation values (Epoch: 2026-09-20T04:11:33.443Z)
Latitude
0.00003°
Longitude
45.33122°
Altitude
471.524 km
Speed
7.632 km/s
True Right ascension
07h 09m 10s
True Declination
0° 00' 00"
Sunlit
Object was in daylight at epoch
Visualization orbit readout
Latitude
Unknown
Longitude
Unknown
Altitude
Unknown
Speed
Unknown
Apparent Right ascension
Unknown
Apparent Declination
Unknown
Sunlit
N/A
Visualization observer readout
Local Sidereal Time
21:06:59
Azimuth
Unknown
Elevation
Unknown
Doppler factor
Unknown
Orbital elements
Apogee altitude
471.814 km
Perigee altitude
470.15 km
Semi-major axis
6,849.119 km
Eccentricity
0.00012
Inclination
53.1589°
RAAN
107.2932°
Arg. of periapsis
83.1104°
True anomaly
276.98978°
Mean anomaly
277.0036°
Eccentric anomaly
276.99669°
Mean motion
3.82905 °/min
Orbital period
94.02 mins
BSTAR
5.8444e-7
Loading maneuver chart data...
Computing Atmospheric mass density...
Loading historical data...
Loading historical data...
Loading historical data...
Loading historical data...
Loading historical data...
Loading historical data...
Loading historical data...

Documentation

Showing up to 5 results
|